| time (UTC) | temp F | wind direction | speed MPH | gust MPH | rain 1hr in | rain 24hr in | rain mn in | humidity % | barometer mb |
| 20260508231548 | 60 | 21 | 7.0 | 13.0 | 0.00 | 0.00 | 0.00 | 62 | 1026.4 |
| 20260508230057 | 59 | 28 | 5.0 | 14.0 | 0.00 | 0.00 | 0.00 | 63 | 1026.2 |
| 20260508224547 | 58 | 50 | 6.0 | 14.0 | 0.00 | 0.00 | 0.00 | 65 | 1026.1 |
| 20260508223051 | 57 | 36 | 6.0 | 12.0 | 0.00 | 0.00 | 0.00 | 66 | 1025.9 |
| 20260508221551 | 56 | 24 | 5.0 | 13.0 | 0.00 | 0.00 | 0.00 | 66 | 1025.7 |
| 20260508220050 | 56 | 34 | 4.0 | 11.0 | 0.00 | 0.00 | 0.00 | 63 | 1025.3 |
| 20260508214547 | 55 | 26 | 4.0 | 10.0 | 0.00 | 0.00 | 0.00 | 63 | 1025.2 |
| 20260508213051 | 54 | 36 | 4.0 | 9.0 | 0.00 | 0.00 | 0.00 | 62 | 1025.0 |
| 20260508211553 | 53 | 59 | 3.0 | 7.0 | 0.00 | 0.00 | 0.00 | 62 | 1024.8 |
| 20260508210050 | 51 | 46 | 2.0 | 5.0 | 0.00 | 0.00 | 0.00 | 63 | 1024.7 |
| 20260508204547 | 50 | 56 | 0.0 | 4.0 | 0.00 | 0.00 | 0.00 | 62 | 1024.6 |
| 20260508203045 | 49 | 0 | 0.0 | 3.0 | 0.00 | 0.00 | 0.00 | 62 | 1024.3 |
| 20260508201541 | 49 | 0 | 0.0 | 0.0 | 0.00 | 0.00 | 0.00 | 62 | 1024.0 |
| 20260508200055 | 49 | 0 | 0.0 | 0.0 | 0.00 | 0.00 | 0.00 | 61 | 1023.9 |
| 20260508194546 | 50 | 0 | 0.0 | 0.0 | 0.00 | 0.00 | 0.00 | 61 | 1023.7 |
| 20260508193057 | 49 | 0 | 0.0 | 0.0 | 0.00 | 0.00 | 0.00 | 62 | 1023.6 |
| 20260508191556 | 47 | 0 | 0.0 | 0.0 | 0.00 | 0.00 | 0.00 | 66 | 1023.5 |
| 20260508190052 | 46 | 0 | 0.0 | 0.0 | 0.00 | 0.00 | 0.00 | 69 | 1023.2 |
| 20260508184548 | 46 | 0 | 0.0 | 0.0 | 0.00 | 0.00 | 0.00 | 68 | 1023.2 |
| 20260508183046 | 47 | 0 | 0.0 | 1.0 | 0.00 | 0.00 | 0.00 | 67 | 1023.3 |
| 20260508181552 | 47 | 0 | 1.0 | 4.0 | 0.00 | 0.00 | 0.00 | 68 | 1023.3 |
| 20260508180045 | 47 | 123 | 0.0 | 5.0 | 0.00 | 0.00 | 0.00 | 68 | 1023.3 |
| 20260508174550 | 46 | 146 | 0.0 | 5.0 | 0.00 | 0.00 | 0.00 | 69 | 1023.4 |
| 20260508173054 | 47 | 0 | 0.0 | 4.0 | 0.00 | 0.00 | 0.00 | 68 | 1023.4 |
| 20260508171552 | 47 | 152 | 1.0 | 7.0 | 0.00 | 0.00 | 0.00 | 67 | 1023.5 |
| 20260508170057 | 47 | 126 | 0.0 | 5.0 | 0.00 | 0.00 | 0.00 | 68 | 1023.4 |
| 20260508164549 | 47 | 132 | 2.0 | 8.0 | 0.00 | 0.00 | 0.00 | 67 | 1023.2 |
| 20260508163050 | 47 | 144 | 1.0 | 4.0 | 0.00 | 0.00 | 0.00 | 69 | 1023.4 |
| 20260508161551 | 46 | 138 | 0.0 | 5.0 | 0.00 | 0.00 | 0.00 | 70 | 1023.3 |
| 20260508160054 | 45 | 171 | 2.0 | 7.0 | 0.00 | 0.00 | 0.00 | 71 | 1023.4 |
| 20260508154550 | 44 | 185 | 1.0 | 5.0 | 0.00 | 0.00 | 0.00 | 72 | 1023.6 |
| 20260508153048 | 44 | 202 | 2.0 | 6.0 | 0.00 | 0.00 | 0.00 | 72 | 1023.6 |
| 20260508151546 | 46 | 0 | 3.0 | 9.0 | 0.00 | 0.00 | 0.00 | 70 | 1023.6 |
| 20260508150045 | 46 | 188 | 2.0 | 10.0 | 0.00 | 0.00 | 0.00 | 70 | 1023.6 |
| 20260508144550 | 46 | 170 | 3.0 | 9.0 | 0.00 | 0.00 | 0.00 | 69 | 1023.7 |
| 20260508143104 | 45 | 175 | 4.0 | 10.0 | 0.00 | 0.00 | 0.00 | 70 | 1023.9 |
| 20260508141549 | 45 | 188 | 3.0 | 6.0 | 0.00 | 0.00 | 0.00 | 70 | 1024.0 |
| 20260508140053 | 46 | 175 | 3.0 | 8.0 | 0.00 | 0.00 | 0.00 | 68 | 1024.2 |
| 20260508134545 | 47 | 175 | 4.0 | 10.0 | 0.00 | 0.00 | 0.00 | 68 | 1024.1 |
| 20260508133045 | 47 | 190 | 3.0 | 9.0 | 0.00 | 0.00 | 0.00 | 66 | 1024.1 |
| 20260508131557 | 48 | 183 | 3.0 | 8.0 | 0.00 | 0.00 | 0.00 | 66 | 1024.3 |
| 20260508130107 | 48 | 170 | 2.0 | 8.0 | 0.00 | 0.00 | 0.00 | 65 | 1024.4 |
| 20260508124550 | 49 | 179 | 4.0 | 11.0 | 0.00 | 0.00 | 0.00 | 64 | 1024.2 |
| 20260508123056 | 49 | 153 | 5.0 | 14.0 | 0.00 | 0.00 | 0.00 | 63 | 1024.2 |
| 20260508121556 | 49 | 182 | 4.0 | 10.0 | 0.00 | 0.00 | 0.00 | 63 | 1024.2 |
| 20260508120054 | 49 | 177 | 2.0 | 11.0 | 0.00 | 0.00 | 0.00 | 63 | 1024.1 |
| 20260508114550 | 49 | 205 | 5.0 | 13.0 | 0.00 | 0.00 | 0.00 | 63 | 1024.0 |
| 20260508113049 | 49 | 183 | 4.0 | 12.0 | 0.00 | 0.00 | 0.00 | 63 | 1024.1 |
| 20260508111548 | 49 | 163 | 4.0 | 11.0 | 0.00 | 0.00 | 0.00 | 63 | 1024.0 |
| 20260508110049 | 49 | 168 | 4.0 | 9.0 | 0.00 | 0.00 | 0.00 | 62 | 1024.0 |
| 20260508104618 | 50 | 207 | 5.0 | 11.0 | 0.00 | 0.00 | 0.00 | 62 | 1023.6 |
| 20260508103050 | 49 | 167 | 2.0 | 8.0 | 0.00 | 0.00 | 0.00 | 60 | 1023.8 |
| 20260508101553 | 50 | 184 | 3.0 | 9.0 | 0.00 | 0.00 | 0.00 | 59 | 1023.8 |
| 20260508100050 | 50 | 178 | 3.0 | 8.0 | 0.00 | 0.00 | 0.00 | 58 | 1023.5 |
| 20260508094555 | 49 | 188 | 1.0 | 6.0 | 0.00 | 0.00 | 0.00 | 58 | 1023.6 |
| 20260508093049 | 50 | 190 | 3.0 | 10.0 | 0.00 | 0.00 | 0.00 | 56 | 1023.2 |
| 20260508091553 | 51 | 195 | 4.0 | 12.0 | 0.00 | 0.00 | 0.00 | 55 | 1023.1 |
| 20260508090107 | 51 | 192 | 4.0 | 10.0 | 0.00 | 0.00 | 0.00 | 54 | 1023.1 |
| 20260508084632 | 52 | 176 | 4.0 | 11.0 | 0.00 | 0.00 | 0.00 | 53 | 1022.9 |
| 20260508083056 | 53 | 161 | 5.0 | 14.0 | 0.00 | 0.00 | 0.00 | 50 | 1022.7 |
| 20260508081555 | 54 | 212 | 6.0 | 12.0 | 0.00 | 0.00 | 0.00 | 49 | 1022.4 |
| 20260508080047 | 54 | 206 | 5.0 | 12.0 | 0.00 | 0.00 | 0.00 | 47 | 1022.4 |
| 20260508074546 | 55 | 187 | 4.0 | 11.0 | 0.00 | 0.00 | 0.00 | 47 | 1022.3 |
| 20260508073044 | 56 | 195 | 5.0 | 12.0 | 0.00 | 0.00 | 0.00 | 46 | 1022.2 |
| 20260508071600 | 56 | 205 | 4.0 | 14.0 | 0.00 | 0.00 | 0.00 | 45 | 1021.9 |
| 20260508070136 | 58 | 216 | 4.0 | 10.0 | 0.00 | 0.00 | 0.00 | 45 | 1021.9 |
| 20260508064605 | 59 | 180 | 4.0 | 14.0 | 0.00 | 0.00 | 0.00 | 43 | 1021.9 |
| 20260508063050 | 59 | 203 | 5.0 | 15.0 | 0.00 | 0.00 | 0.00 | 42 | 1021.9 |
| 20260508061549 | 60 | 179 | 7.0 | 12.0 | 0.00 | 0.00 | 0.00 | 42 | 1021.6 |
| 20260508060052 | 61 | 174 | 6.0 | 16.0 | 0.00 | 0.00 | 0.00 | 41 | 1021.5 |
| 20260508054545 | 61 | 150 | 6.0 | 15.0 | 0.00 | 0.00 | 0.00 | 40 | 1021.5 |
| 20260508053211 | 62 | 229 | 6.0 | 15.0 | 0.00 | 0.00 | 0.00 | 40 | 1021.3 |
| 20260508050047 | 62 | 215 | 6.0 | 19.0 | 0.00 | 0.00 | 0.00 | 39 | 1021.5 |
| 20260508044547 | 62 | 173 | 6.0 | 18.0 | 0.00 | 0.00 | 0.00 | 40 | 1021.5 |
| 20260508043101 | 63 | 188 | 7.0 | 14.0 | 0.00 | 0.00 | 0.00 | 38 | 1021.5 |
| 20260508041550 | 63 | 198 | 7.0 | 12.0 | 0.00 | 0.00 | 0.00 | 40 | 1021.5 |
| 20260508040050 | 64 | 145 | 5.0 | 15.0 | 0.00 | 0.00 | 0.00 | 37 | 1021.6 |
| 20260508034547 | 64 | 184 | 3.0 | 12.0 | 0.00 | 0.00 | 0.00 | 37 | 1021.8 |
| 20260508033049 | 63 | 194 | 4.0 | 14.0 | 0.00 | 0.00 | 0.00 | 37 | 1021.9 |
| 20260508031554 | 63 | 217 | 6.0 | 14.0 | 0.00 | 0.00 | 0.00 | 37 | 1021.9 |
| 20260508030100 | 62 | 215 | 6.0 | 16.0 | 0.00 | 0.00 | 0.00 | 38 | 1021.9 |
| 20260508024556 | 61 | 179 | 6.0 | 16.0 | 0.00 | 0.00 | 0.00 | 38 | 1022.3 |
| 20260508023048 | 61 | 174 | 7.0 | 14.0 | 0.00 | 0.00 | 0.00 | 36 | 1022.5 |
| 20260508021551 | 61 | 198 | 5.0 | 14.0 | 0.00 | 0.00 | 0.00 | 36 | 1022.6 |
| 20260508020045 | 60 | 184 | 4.0 | 14.0 | 0.00 | 0.00 | 0.00 | 38 | 1022.7 |
| 20260508014545 | 59 | 202 | 3.0 | 11.0 | 0.00 | 0.00 | 0.00 | 41 | 1023.0 |
| 20260508013043 | 58 | 146 | 6.0 | 14.0 | 0.00 | 0.00 | 0.00 | 39 | 1023.4 |
| 20260508011546 | 56 | 183 | 6.0 | 14.0 | 0.00 | 0.00 | 0.00 | 46 | 1023.7 |
| 20260508010045 | 55 | 157 | 4.0 | 12.0 | 0.00 | 0.00 | 0.00 | 45 | 1023.6 |
| 20260508004545 | 55 | 191 | 5.0 | 14.0 | 0.00 | 0.00 | 0.00 | 45 | 1023.7 |
| 20260508003049 | 54 | 194 | 6.0 | 12.0 | 0.00 | 0.00 | 0.00 | 48 | 1023.9 |
| 20260508001547 | 54 | 186 | 3.0 | 9.0 | 0.00 | 0.00 | 0.00 | 48 | 1024.0 |
| 20260508000043 | 53 | 177 | 5.0 | 12.0 | 0.00 | 0.00 | 0.00 | 49 | 1024.0 |
| 20260507234547 | 52 | 177 | 3.0 | 8.0 | 0.00 | 0.00 | 0.00 | 49 | 1024.2 |
| 20260507233045 | 50 | 177 | 4.0 | 12.0 | 0.00 | 0.00 | 0.00 | 51 | 1024.3 |